Time,TemperatureF,DewpointF,PressureIn,WindDirection,WindDirectionDegrees,WindSpeedMPH,WindSpeedGustMPH,Humidity,HourlyPrecipIn,Conditions,Clouds,dailyrainin,SolarRadiationWatts/m^2,SoftwareType,DateUTC
2013-03-25 00:00:00,41.6,21.9,30.18,SW,234,4.0,6.0,45,0.00,,---,0.00,0.00,VWS V14.00,2013-03-25 05:00:00,
2013-03-25 00:05:00,41.8,22.0,30.18,SW,234,3.0,5.0,45,0.00,,---,0.00,0.00,VWS V14.00,2013-03-25 05:05:00,
2013-03-25 00:10:00,41.5,22.3,30.19,SW,234,2.0,5.0,46,0.00,,---,0.00,0.00,VWS V14.00,2013-03-25 05:10:00,
2013-03-25 00:15:00,41.0,21.8,30.19,SW,234,1.0,5.0,46,0.00,,---,0.00,0.00,VWS V14.00,2013-03-25 05:15:00,
2013-03-25 00:20:00,41.2,22.0,30.18,SW,214,5.0,7.0,46,0.00,,---,0.00,0.00,VWS V14.00,2013-03-25 05:20:00,
2013-03-25 00:25:00,41.4,22.2,30.18,South,184,6.0,7.0,46,0.00,,---,0.00,0.00,VWS V14.00,2013-03-25 05:25:00,
2013-03-25 00:30:00,41.7,21.9,30.18,SSE,164,5.0,8.0,45,0.00,,---,0.00,0.00,VWS V14.00,2013-03-25 05:30:00,
2013-03-25 00:35:00,41.8,22.0,30.18,SSE,157,4.0,8.0,45,0.00,,---,0.00,0.00,VWS V14.00,2013-03-25 05:35:00,
2013-03-25 00:40:00,41.8,22.0,30.18,SSE,153,1.0,9.0,45,0.00,,---,0.00,0.00,VWS V14.00,2013-03-25 05:40:00,
2013-03-25 00:45:00,41.0,22.3,30.18,SSE,153,2.0,5.0,47,0.00,,---,0.00,0.00,VWS V14.00,2013-03-25 05:45:00,
2013-03-25 00:50:00,40.2,22.1,30.18,SSE,153,6.0,6.0,48,0.00,,---,0.00,0.00,VWS V14.00,2013-03-25 05:50:00,
2013-03-25 00:55:00,40.2,22.1,30.18,SSE,152,5.0,7.0,48,0.00,,---,0.00,0.00,VWS V14.00,2013-03-25 05:55:00,
2013-03-25 01:00:00,40.7,22.1,30.18,SSE,148,4.0,8.0,47,0.00,,---,0.00,0.00,VWS V14.00,2013-03-25 06:00:00,
2013-03-25 01:05:00,40.9,22.2,30.18,SSE,148,4.0,6.0,47,0.00,,---,0.00,0.00,VWS V14.00,2013-03-25 06:05:00,
2013-03-25 01:10:00,40.8,22.6,30.19,SSE,148,4.0,7.0,48,0.00,,---,0.00,0.00,VWS V14.00,2013-03-25 06:10:00,
2013-03-25 01:15:00,40.8,22.6,30.19,SSE,148,2.0,6.0,48,0.00,,---,0.00,0.00,VWS V14.00,2013-03-25 06:15:00,
2013-03-25 01:20:00,40.8,22.6,30.19,SSE,148,2.0,6.0,48,0.00,,---,0.00,0.00,VWS V14.00,2013-03-25 06:20:00,
2013-03-25 01:25:00,40.7,22.5,30.19,SSE,148,4.0,5.0,48,0.00,,---,0.00,0.00,VWS V14.00,2013-03-25 06:25:00,
2013-03-25 01:30:00,40.6,22.5,30.20,SSE,148,5.0,7.0,48,0.00,,---,0.00,0.00,VWS V14.00,2013-03-25 06:30:00,
2013-03-25 01:35:00,40.2,22.6,30.19,SSE,148,5.0,6.0,49,0.00,,---,0.00,0.00,VWS V14.00,2013-03-25 06:35:00,
2013-03-25 01:40:00,40.1,22.5,30.19,SSE,148,5.0,7.0,49,0.00,,---,0.00,0.00,VWS V14.00,2013-03-25 06:40:00,
2013-03-25 01:45:00,40.0,22.4,30.20,SSE,148,2.0,5.0,49,0.00,,---,0.00,0.00,VWS V14.00,2013-03-25 06:45:00,
2013-03-25 01:50:00,39.6,22.0,30.21,SSE,148,0.0,5.0,49,0.00,,---,0.00,0.00,VWS V14.00,2013-03-25 06:50:00,
2013-03-25 01:55:00,39.4,22.3,30.21,SSE,148,0.0,7.0,50,0.00,,---,0.00,0.00,VWS V14.00,2013-03-25 06:55:00,
2013-03-25 02:00:00,39.4,22.3,30.21,SSE,148,1.0,7.0,50,0.00,,---,0.00,0.00,VWS V14.00,2013-03-25 07:00:00,
2013-03-25 02:05:00,39.4,22.3,30.22,SSE,148,4.0,5.0,50,0.00,,---,0.00,0.00,VWS V14.00,2013-03-25 07:05:00,
2013-03-25 02:10:00,39.2,22.1,30.22,SSE,148,2.0,6.0,50,0.00,,---,0.00,0.00,VWS V14.00,2013-03-25 07:10:00,
2013-03-25 02:15:00,38.8,21.8,30.22,SSE,148,4.0,5.0,50,0.00,,---,0.00,0.00,VWS V14.00,2013-03-25 07:15:00,
2013-03-25 02:20:00,39.1,22.0,30.22,SSE,148,1.0,6.0,50,0.00,,---,0.00,0.00,VWS V14.00,2013-03-25 07:20:00,
2013-03-25 02:25:00,39.4,21.8,30.22,SSE,148,0.0,2.0,49,0.00,,---,0.00,0.00,VWS V14.00,2013-03-25 07:25:00,
2013-03-25 02:30:00,39.5,21.9,30.23,SSE,148,0.0,2.0,49,0.00,,---,0.00,0.00,VWS V14.00,2013-03-25 07:30:00,
2013-03-25 02:35:00,39.2,21.7,30.23,SSE,148,0.0,0.0,49,0.00,,---,0.00,0.00,VWS V14.00,2013-03-25 07:35:00,
2013-03-25 02:40:00,39.0,21.5,30.23,SSE,148,0.0,0.0,49,0.00,,---,0.00,0.00,VWS V14.00,2013-03-25 07:40:00,
2013-03-25 02:45:00,38.6,21.6,30.23,SSE,148,0.0,0.0,50,0.00,,---,0.00,0.00,VWS V14.00,2013-03-25 07:45:00,
2013-03-25 02:50:00,38.4,21.9,30.24,SSE,148,0.0,1.0,51,0.00,,---,0.00,0.00,VWS V14.00,2013-03-25 07:50:00,
2013-03-25 02:55:00,38.4,21.9,30.24,SSE,148,0.0,0.0,51,0.00,,---,0.00,0.00,VWS V14.00,2013-03-25 07:55:00,
2013-03-25 03:00:00,37.9,21.9,30.24,SSE,148,0.0,0.0,52,0.00,,---,0.00,0.00,VWS V14.00,2013-03-25 08:00:00,
2013-03-25 03:05:00,37.8,21.8,30.24,SSE,148,0.0,0.0,52,0.00,,---,0.00,0.00,VWS V14.00,2013-03-25 08:05:00,
2013-03-25 03:10:00,37.4,21.9,30.24,SSE,148,0.0,0.0,53,0.00,,---,0.00,0.00,VWS V14.00,2013-03-25 08:10:00,
2013-03-25 03:15:00,37.2,21.7,30.24,SSE,148,0.0,0.0,53,0.00,,---,0.00,0.00,VWS V14.00,2013-03-25 08:15:00,
2013-03-25 03:20:00,37.2,21.7,30.24,SSE,148,0.0,0.0,53,0.00,,---,0.00,0.00,VWS V14.00,2013-03-25 08:20:00,
2013-03-25 03:25:00,37.4,21.4,30.24,SSE,148,0.0,1.0,52,0.00,,---,0.00,0.00,VWS V14.00,2013-03-25 08:25:00,
2013-03-25 03:30:00,37.5,21.5,30.24,SSE,148,1.0,5.0,52,0.00,,---,0.00,0.00,VWS V14.00,2013-03-25 08:30:00,
2013-03-25 03:35:00,37.5,21.5,30.24,SSE,148,0.0,4.0,52,0.00,,---,0.00,0.00,VWS V14.00,2013-03-25 08:35:00,
2013-03-25 03:40:00,37.5,21.0,30.25,SSE,148,7.0,7.0,51,0.00,,---,0.00,0.00,VWS V14.00,2013-03-25 08:40:00,
2013-03-25 03:45:00,37.5,21.0,30.25,SSE,148,5.0,8.0,51,0.00,,---,0.00,0.00,VWS V14.00,2013-03-25 08:45:00,
2013-03-25 03:50:00,37.4,20.5,30.25,SSE,148,5.0,8.0,50,0.00,,---,0.00,0.00,VWS V14.00,2013-03-25 08:50:00,
2013-03-25 03:55:00,37.5,20.6,30.25,SSE,148,5.0,8.0,50,0.00,,---,0.00,0.00,VWS V14.00,2013-03-25 08:55:00,
2013-03-25 04:00:00,37.5,20.6,30.25,SSE,148,7.0,8.0,50,0.00,,---,0.00,0.00,VWS V14.00,2013-03-25 09:00:00,
2013-03-25 04:05:00,37.5,20.6,30.26,SSE,148,0.0,6.0,50,0.00,,---,0.00,0.00,VWS V14.00,2013-03-25 09:05:00,
2013-03-25 04:10:00,37.5,20.6,30.26,SSE,148,5.0,6.0,50,0.00,,---,0.00,0.00,VWS V14.00,2013-03-25 09:10:00,
2013-03-25 04:15:00,37.4,20.5,30.26,SSE,148,0.0,5.0,50,0.00,,---,0.00,0.00,VWS V14.00,2013-03-25 09:15:00,
2013-03-25 04:20:00,37.3,20.4,30.26,SSE,148,0.0,5.0,50,0.00,,---,0.00,0.00,VWS V14.00,2013-03-25 09:20:00,
2013-03-25 04:25:00,37.2,20.3,30.27,SSE,148,0.0,1.0,50,0.00,,---,0.00,0.00,VWS V14.00,2013-03-25 09:25:00,
2013-03-25 04:30:00,37.0,20.1,30.26,SSE,148,0.0,1.0,50,0.00,,---,0.00,0.00,VWS V14.00,2013-03-25 09:30:00,
2013-03-25 04:35:00,36.7,19.8,30.27,SSE,148,0.0,0.0,50,0.00,,---,0.00,0.00,VWS V14.00,2013-03-25 09:35:00,
2013-03-25 04:40:00,36.4,19.5,30.27,SSE,148,0.0,4.0,50,0.00,,---,0.00,0.00,VWS V14.00,2013-03-25 09:40:00,
2013-03-25 04:45:00,36.3,19.5,30.27,SSE,148,0.0,4.0,50,0.00,,---,0.00,0.00,VWS V14.00,2013-03-25 09:45:00,
2013-03-25 04:50:00,36.1,19.3,30.28,SSE,148,2.0,6.0,50,0.00,,---,0.00,0.00,VWS V14.00,2013-03-25 09:50:00,
2013-03-25 04:55:00,36.0,19.2,30.28,SSE,148,0.0,1.0,50,0.00,,---,0.00,0.00,VWS V14.00,2013-03-25 09:55:00,
2013-03-25 05:00:00,35.9,19.1,30.29,SSE,148,0.0,5.0,50,0.00,,---,0.00,0.00,VWS V14.00,2013-03-25 10:00:00,
2013-03-25 05:05:00,35.7,18.9,30.29,SSE,148,0.0,7.0,50,0.00,,---,0.00,0.00,VWS V14.00,2013-03-25 10:05:00,
2013-03-25 05:10:00,35.6,19.3,30.29,SSE,148,5.0,7.0,51,0.00,,---,0.00,0.00,VWS V14.00,2013-03-25 10:10:00,
2013-03-25 05:15:00,35.6,19.3,30.30,SSE,148,1.0,6.0,51,0.00,,---,0.00,0.00,VWS V14.00,2013-03-25 10:15:00,
2013-03-25 05:20:00,35.5,19.2,30.30,SSE,148,0.0,6.0,51,0.00,,---,0.00,0.00,VWS V14.00,2013-03-25 10:20:00,
2013-03-25 05:25:00,35.4,19.1,30.30,SSE,148,0.0,0.0,51,0.00,,---,0.00,0.00,VWS V14.00,2013-03-25 10:25:00,
2013-03-25 05:30:00,35.2,18.9,30.31,SSE,148,0.0,1.0,51,0.00,,---,0.00,0.00,VWS V14.00,2013-03-25 10:30:00,
2013-03-25 05:35:00,35.0,19.2,30.32,SSE,148,0.0,0.0,52,0.00,,---,0.00,0.00,VWS V14.00,2013-03-25 10:35:00,
2013-03-25 05:40:00,34.9,19.1,30.32,SSE,148,0.0,0.0,52,0.00,,---,0.00,0.00,VWS V14.00,2013-03-25 10:40:00,
2013-03-25 05:45:00,34.7,18.9,30.32,SSE,148,1.0,5.0,52,0.00,,---,0.00,0.00,VWS V14.00,2013-03-25 10:45:00,
2013-03-25 05:50:00,34.6,19.2,30.32,SSE,148,0.0,5.0,53,0.00,,---,0.00,0.00,VWS V14.00,2013-03-25 10:50:00,
2013-03-25 05:55:00,34.4,19.0,30.33,SSE,148,0.0,0.0,53,0.00,,---,0.00,0.00,VWS V14.00,2013-03-25 10:55:00,
2013-03-25 06:00:00,34.2,18.9,30.33,SSE,148,0.0,0.0,53,0.00,,---,0.00,0.00,VWS V14.00,2013-03-25 11:00:00,
2013-03-25 06:05:00,34.0,19.1,30.33,SSE,148,0.0,0.0,54,0.00,,---,0.00,0.00,VWS V14.00,2013-03-25 11:05:00,
2013-03-25 06:10:00,33.8,19.4,30.33,SSE,148,0.0,0.0,55,0.00,,---,0.00,0.00,VWS V14.00,2013-03-25 11:10:00,
2013-03-25 06:15:00,33.5,19.1,30.33,SSE,148,0.0,0.0,55,0.00,,---,0.00,0.00,VWS V14.00,2013-03-25 11:15:00,
2013-03-25 06:20:00,33.4,19.0,30.34,SSE,148,0.0,0.0,55,0.00,,---,0.00,0.00,VWS V14.00,2013-03-25 11:20:00,
2013-03-25 06:25:00,33.4,19.0,30.34,SSE,148,0.0,0.0,55,0.00,,---,0.00,0.00,VWS V14.00,2013-03-25 11:25:00,
2013-03-25 06:30:00,33.4,19.0,30.34,SSE,148,0.0,0.0,55,0.00,,---,0.00,0.00,VWS V14.00,2013-03-25 11:30:00,
2013-03-25 06:35:00,33.3,18.9,30.34,SSE,148,0.0,0.0,55,0.00,,---,0.00,0.00,VWS V14.00,2013-03-25 11:35:00,
2013-03-25 06:40:00,33.2,19.2,30.34,SSE,148,0.0,0.0,56,0.00,,---,0.00,0.00,VWS V14.00,2013-03-25 11:40:00,
2013-03-25 06:45:00,33.0,19.0,30.35,SSE,148,0.0,0.0,56,0.00,,---,0.00,0.00,VWS V14.00,2013-03-25 11:45:00,
2013-03-25 06:50:00,32.9,18.9,30.35,SSE,148,1.0,1.0,56,0.00,,---,0.00,0.00,VWS V14.00,2013-03-25 11:50:00,
2013-03-25 06:55:00,32.9,19.4,30.36,SSE,148,0.0,5.0,57,0.00,,---,0.00,0.00,VWS V14.00,2013-03-25 11:55:00,
2013-03-25 07:00:00,32.9,19.4,30.35,SSE,148,0.0,5.0,57,0.00,,---,0.00,0.00,VWS V14.00,2013-03-25 12:00:00,
2013-03-25 07:05:00,32.9,19.4,30.36,SSE,148,0.0,2.0,57,0.00,,---,0.00,0.00,VWS V14.00,2013-03-25 12:05:00,
2013-03-25 07:10:00,32.9,19.4,30.37,SSE,148,0.0,2.0,57,0.00,,---,0.00,0.00,VWS V14.00,2013-03-25 12:10:00,
2013-03-25 07:15:00,32.7,19.2,30.37,SSE,148,0.0,0.0,57,0.00,,---,0.00,0.00,VWS V14.00,2013-03-25 12:15:00,
2013-03-25 07:20:00,32.6,19.5,30.37,SSE,148,0.0,0.0,58,0.00,,---,0.00,0.00,VWS V14.00,2013-03-25 12:20:00,
2013-03-25 07:25:00,32.3,19.2,30.38,SSE,148,0.0,0.0,58,0.00,,---,0.00,0.00,VWS V14.00,2013-03-25 12:25:00,
2013-03-25 07:30:00,32.1,19.0,30.39,SSE,148,0.0,0.0,58,0.00,,---,0.00,0.00,VWS V14.00,2013-03-25 12:30:00,
2013-03-25 07:35:00,31.8,19.1,30.39,SSE,148,0.0,0.0,59,0.00,,---,0.00,5.00,VWS V14.00,2013-03-25 12:35:00,
2013-03-25 07:40:00,31.7,19.4,30.39,SSE,148,0.0,0.0,60,0.00,,---,0.00,9.00,VWS V14.00,2013-03-25 12:40:00,
2013-03-25 07:45:00,31.4,19.1,30.39,SSE,148,0.0,0.0,60,0.00,,---,0.00,12.00,VWS V14.00,2013-03-25 12:45:00,
2013-03-25 07:50:00,31.3,19.4,30.39,SSE,148,0.0,0.0,61,0.00,,---,0.00,16.00,VWS V14.00,2013-03-25 12:50:00,
2013-03-25 07:55:00,31.3,19.4,30.39,SSE,148,0.0,0.0,61,0.00,,---,0.00,21.00,VWS V14.00,2013-03-25 12:55:00,
2013-03-25 08:00:00,31.3,19.4,30.39,SSE,148,0.0,0.0,61,0.00,,---,0.00,25.00,VWS V14.00,2013-03-25 13:00:00,
2013-03-25 08:05:00,31.3,19.4,30.40,SSE,148,0.0,1.0,61,0.00,,---,0.00,26.00,VWS V14.00,2013-03-25 13:05:00,
2013-03-25 08:10:00,31.3,19.4,30.40,SSE,148,0.0,1.0,61,0.00,,---,0.00,30.00,VWS V14.00,2013-03-25 13:10:00,
2013-03-25 08:15:00,31.5,19.6,30.40,SSE,148,0.0,0.0,61,0.00,,---,0.00,33.00,VWS V14.00,2013-03-25 13:15:00,
2013-03-25 08:20:00,31.6,19.7,30.41,SSE,148,0.0,0.0,61,0.00,,---,0.00,37.00,VWS V14.00,2013-03-25 13:20:00,
2013-03-25 08:25:00,31.9,20.4,30.41,SSE,148,0.0,0.0,62,0.00,,---,0.00,49.00,VWS V14.00,2013-03-25 13:25:00,
2013-03-25 08:30:00,32.2,20.3,30.41,SSE,148,0.0,0.0,61,0.00,,---,0.00,67.00,VWS V14.00,2013-03-25 13:30:00,
2013-03-25 08:35:00,32.7,20.4,30.41,SSE,148,5.0,5.0,60,0.00,,---,0.00,105.00,VWS V14.00,2013-03-25 13:35:00,
2013-03-25 08:40:00,33.4,20.2,30.41,SSE,148,0.0,5.0,58,0.00,,---,0.00,127.00,VWS V14.00,2013-03-25 13:40:00,
2013-03-25 08:45:00,34.1,20.1,30.42,SSE,148,4.0,4.0,56,0.00,,---,0.00,121.00,VWS V14.00,2013-03-25 13:45:00,
2013-03-25 08:50:00,34.7,19.8,30.42,SSE,148,2.0,6.0,54,0.00,,---,0.00,207.00,VWS V14.00,2013-03-25 13:50:00,
2013-03-25 08:55:00,35.3,19.5,30.42,SSE,148,6.0,9.0,52,0.00,,---,0.00,229.00,VWS V14.00,2013-03-25 13:55:00,
2013-03-25 09:00:00,35.8,19.0,30.43,SE,146,7.0,10.0,50,0.00,,---,0.00,251.00,VWS V14.00,2013-03-25 14:00:00,
2013-03-25 09:05:00,36.2,18.4,30.43,SE,137,7.0,10.0,48,0.00,,---,0.00,271.00,VWS V14.00,2013-03-25 14:05:00,
2013-03-25 09:10:00,36.5,17.7,30.43,SE,138,5.0,11.0,46,0.00,,---,0.00,290.00,VWS V14.00,2013-03-25 14:10:00,
2013-03-25 09:15:00,36.7,17.4,30.44,SE,133,5.0,12.0,45,0.00,,---,0.00,306.00,VWS V14.00,2013-03-25 14:15:00,
2013-03-25 09:20:00,36.9,17.6,30.44,SE,132,5.0,13.0,45,0.00,,---,0.00,329.00,VWS V14.00,2013-03-25 14:20:00,
2013-03-25 09:25:00,37.6,17.1,30.44,SE,134,7.0,12.0,43,0.00,,---,0.00,345.00,VWS V14.00,2013-03-25 14:25:00,
2013-03-25 09:30:00,38.0,15.8,30.45,SE,138,6.0,14.0,40,0.00,,---,0.00,367.00,VWS V14.00,2013-03-25 14:30:00,
2013-03-25 09:35:00,38.3,15.5,30.45,ESE,121,7.0,16.0,39,0.00,,---,0.00,383.00,VWS V14.00,2013-03-25 14:35:00,
2013-03-25 09:40:00,38.7,15.3,30.45,SE,129,14.0,16.0,38,0.00,,---,0.00,403.00,VWS V14.00,2013-03-25 14:40:00,
2013-03-25 09:45:00,39.0,14.9,30.45,SE,129,6.0,13.0,37,0.00,,---,0.00,422.00,VWS V14.00,2013-03-25 14:45:00,
2013-03-25 09:50:00,39.1,15.6,30.45,SE,129,9.0,13.0,38,0.00,,---,0.00,441.00,VWS V14.00,2013-03-25 14:50:00,
2013-03-25 09:55:00,39.2,15.7,30.46,SE,130,5.0,13.0,38,0.00,,---,0.00,455.00,VWS V14.00,2013-03-25 14:55:00,
2013-03-25 10:00:00,39.7,16.8,30.46,SE,131,7.0,13.0,39,0.00,,---,0.00,473.00,VWS V14.00,2013-03-25 15:00:00,
2013-03-25 10:05:00,40.6,17.0,30.46,SE,131,1.0,11.0,38,0.00,,---,0.00,496.00,VWS V14.00,2013-03-25 15:05:00,
2013-03-25 10:10:00,41.2,17.5,30.46,SE,131,2.0,11.0,38,0.00,,---,0.00,513.00,VWS V14.00,2013-03-25 15:10:00,
2013-03-25 10:15:00,41.6,16.0,30.46,SE,132,1.0,8.0,35,0.00,,---,0.00,527.00,VWS V14.00,2013-03-25 15:15:00,
2013-03-25 10:20:00,41.9,16.3,30.46,SE,126,9.0,9.0,35,0.00,,---,0.00,547.00,VWS V14.00,2013-03-25 15:20:00,
2013-03-25 10:25:00,42.3,15.9,30.46,SE,125,8.0,12.0,34,0.00,,---,0.00,564.00,VWS V14.00,2013-03-25 15:25:00,
2013-03-25 10:30:00,42.7,13.4,30.46,SE,128,5.0,14.0,30,0.00,,---,0.00,577.00,VWS V14.00,2013-03-25 15:30:00,
2013-03-25 10:35:00,42.8,14.3,30.46,SE,130,12.0,14.0,31,0.00,,---,0.00,591.00,VWS V14.00,2013-03-25 15:35:00,
2013-03-25 10:40:00,42.4,13.9,30.47,SE,127,2.0,14.0,31,0.00,,---,0.00,608.00,VWS V14.00,2013-03-25 15:40:00,
2013-03-25 10:45:00,42.7,14.9,30.46,SE,126,9.0,13.0,32,0.00,,---,0.00,624.00,VWS V14.00,2013-03-25 15:45:00,
2013-03-25 10:50:00,42.8,14.3,30.47,SE,128,7.0,13.0,31,0.00,,---,0.00,642.00,VWS V14.00,2013-03-25 15:50:00,
2013-03-25 10:55:00,43.2,16.1,30.46,ESE,121,6.0,11.0,33,0.00,,---,0.00,657.00,VWS V14.00,2013-03-25 15:55:00,
2013-03-25 11:00:00,44.0,15.3,30.46,ESE,119,5.0,12.0,31,0.00,,---,0.00,671.00,VWS V14.00,2013-03-25 16:00:00,
2013-03-25 11:05:00,44.1,15.4,30.46,ESE,113,8.0,18.0,31,0.00,,---,0.00,686.00,VWS V14.00,2013-03-25 16:05:00,
2013-03-25 11:10:00,43.9,15.2,30.46,ESE,118,5.0,18.0,31,0.00,,---,0.00,700.00,VWS V14.00,2013-03-25 16:10:00,
2013-03-25 11:15:00,44.6,16.6,30.46,ESE,118,4.0,8.0,32,0.00,,---,0.00,715.00,VWS V14.00,2013-03-25 16:15:00,
2013-03-25 11:20:00,45.1,14.8,30.46,ESE,119,9.0,13.0,29,0.00,,---,0.00,728.00,VWS V14.00,2013-03-25 16:20:00,
2013-03-25 11:25:00,45.0,15.4,30.46,ESE,121,6.0,11.0,30,0.00,,---,0.00,738.00,VWS V14.00,2013-03-25 16:25:00,
2013-03-25 11:30:00,45.8,16.1,30.46,SE,124,12.0,15.0,30,0.00,,---,0.00,752.00,VWS V14.00,2013-03-25 16:30:00,
2013-03-25 11:35:00,46.0,14.7,30.46,ESE,117,7.0,11.0,28,0.00,,---,0.00,765.00,VWS V14.00,2013-03-25 16:35:00,
2013-03-25 11:40:00,46.6,14.4,30.45,SE,124,9.0,15.0,27,0.00,,---,0.00,777.00,VWS V14.00,2013-03-25 16:40:00,
2013-03-25 11:45:00,46.5,13.5,30.46,ESE,121,2.0,12.0,26,0.00,,---,0.00,788.00,VWS V14.00,2013-03-25 16:45:00,
2013-03-25 11:50:00,46.2,14.9,30.46,ESE,121,5.0,12.0,28,0.00,,---,0.00,798.00,VWS V14.00,2013-03-25 16:50:00,
2013-03-25 11:55:00,46.4,15.9,30.45,ESE,121,4.0,6.0,29,0.00,,---,0.00,810.00,VWS V14.00,2013-03-25 16:55:00,
2013-03-25 12:00:00,48.0,14.8,30.45,ESE,120,2.0,7.0,26,0.00,,---,0.00,819.00,VWS V14.00,2013-03-25 17:00:00,
2013-03-25 12:05:00,48.0,13.9,30.45,ESE,118,8.0,12.0,25,0.00,,---,0.00,828.00,VWS V14.00,2013-03-25 17:05:00,
2013-03-25 12:10:00,47.6,13.5,30.45,ESE,123,6.0,12.0,25,0.00,,---,0.00,840.00,VWS V14.00,2013-03-25 17:10:00,
2013-03-25 12:15:00,47.6,13.5,30.44,ESE,118,1.0,11.0,25,0.00,,---,0.00,844.00,VWS V14.00,2013-03-25 17:15:00,
2013-03-25 12:20:00,48.1,14.9,30.44,ESE,119,11.0,12.0,26,0.00,,---,0.00,854.00,VWS V14.00,2013-03-25 17:20:00,
2013-03-25 12:25:00,48.5,15.2,30.44,ESE,122,5.0,9.0,26,0.00,,---,0.00,867.00,VWS V14.00,2013-03-25 17:25:00,
2013-03-25 12:30:00,48.6,13.5,30.44,SE,128,2.0,18.0,24,0.00,,---,0.00,872.00,VWS V14.00,2013-03-25 17:30:00,
2013-03-25 12:35:00,48.9,13.7,30.43,SE,126,11.0,13.0,24,0.00,,---,0.00,879.00,VWS V14.00,2013-03-25 17:35:00,
2013-03-25 12:40:00,48.2,13.1,30.43,SE,130,8.0,13.0,24,0.00,,---,0.00,889.00,VWS V14.00,2013-03-25 17:40:00,
2013-03-25 12:45:00,49.2,14.0,30.43,SE,130,1.0,12.0,24,0.00,,---,0.00,891.00,VWS V14.00,2013-03-25 17:45:00,
2013-03-25 12:50:00,50.3,12.9,30.43,SE,126,11.0,13.0,22,0.00,,---,0.00,900.00,VWS V14.00,2013-03-25 17:50:00,
2013-03-25 12:55:00,49.6,12.3,30.43,SE,128,4.0,13.0,22,0.00,,---,0.00,902.00,VWS V14.00,2013-03-25 17:55:00,
2013-03-25 13:00:00,50.0,14.6,30.43,ESE,119,6.0,13.0,24,0.00,,---,0.00,907.00,VWS V14.00,2013-03-25 18:00:00,
2013-03-25 13:05:00,50.0,14.6,30.43,ESE,120,2.0,5.0,24,0.00,,---,0.00,911.00,VWS V14.00,2013-03-25 18:05:00,
2013-03-25 13:10:00,50.6,15.2,30.42,ESE,113,9.0,9.0,24,0.00,,---,0.00,918.00,VWS V14.00,2013-03-25 18:10:00,
2013-03-25 13:15:00,51.0,14.5,30.42,ESE,114,2.0,6.0,23,0.00,,---,0.00,921.00,VWS V14.00,2013-03-25 18:15:00,
2013-03-25 13:20:00,51.6,11.9,30.42,ESE,104,5.0,11.0,20,0.00,,---,0.00,925.00,VWS V14.00,2013-03-25 18:20:00,
2013-03-25 13:25:00,52.3,13.5,30.42,ESE,111,7.0,8.0,21,0.00,,---,0.00,925.00,VWS V14.00,2013-03-25 18:25:00,
2013-03-25 13:30:00,51.2,12.6,30.42,ESE,117,1.0,11.0,21,0.00,,---,0.00,930.00,VWS V14.00,2013-03-25 18:30:00,
2013-03-25 13:35:00,50.5,13.1,30.41,SE,128,0.0,15.0,22,0.00,,---,0.00,930.00,VWS V14.00,2013-03-25 18:35:00,
2013-03-25 13:40:00,50.9,12.4,30.41,SE,127,2.0,15.0,21,0.00,,---,0.00,937.00,VWS V14.00,2013-03-25 18:40:00,
2013-03-25 13:45:00,51.1,12.5,30.40,SE,128,7.0,8.0,21,0.00,,---,0.00,933.00,VWS V14.00,2013-03-25 18:45:00,
2013-03-25 13:50:00,51.8,13.1,30.40,SE,126,2.0,9.0,21,0.00,,---,0.00,932.00,VWS V14.00,2013-03-25 18:50:00,
2013-03-25 13:55:00,51.9,12.1,30.40,SE,126,5.0,6.0,20,0.00,,---,0.00,935.00,VWS V14.00,2013-03-25 18:55:00,
2013-03-25 14:00:00,52.2,13.5,30.40,SE,133,9.0,11.0,21,0.00,,---,0.00,932.00,VWS V14.00,2013-03-25 19:00:00,
2013-03-25 14:05:00,52.0,13.3,30.39,SE,133,0.0,9.0,21,0.00,,---,0.00,933.00,VWS V14.00,2013-03-25 19:05:00,
2013-03-25 14:10:00,52.2,14.5,30.39,SE,133,1.0,9.0,22,0.00,,---,0.00,932.00,VWS V14.00,2013-03-25 19:10:00,
2013-03-25 14:15:00,52.8,15.0,30.38,SE,132,4.0,11.0,22,0.00,,---,0.00,932.00,VWS V14.00,2013-03-25 19:15:00,
2013-03-25 14:20:00,53.7,13.6,30.38,ESE,117,2.0,12.0,20,0.00,,---,0.00,925.00,VWS V14.00,2013-03-25 19:20:00,
2013-03-25 14:25:00,53.9,14.9,30.38,ESE,117,5.0,7.0,21,0.00,,---,0.00,923.00,VWS V14.00,2013-03-25 19:25:00,
2013-03-25 14:30:00,53.8,12.5,30.38,ESE,116,1.0,9.0,19,0.00,,---,0.00,919.00,VWS V14.00,2013-03-25 19:30:00,
2013-03-25 14:35:00,53.3,14.4,30.38,ESE,117,0.0,7.0,21,0.00,,---,0.00,916.00,VWS V14.00,2013-03-25 19:35:00,
2013-03-25 14:40:00,53.5,11.1,30.38,ESE,117,5.0,7.0,18,0.00,,---,0.00,911.00,VWS V14.00,2013-03-25 19:40:00,
2013-03-25 14:45:00,53.4,13.4,30.37,ESE,117,5.0,7.0,20,0.00,,---,0.00,905.00,VWS V14.00,2013-03-25 19:45:00,
2013-03-25 14:50:00,54.1,13.9,30.37,ESE,120,6.0,9.0,20,0.00,,---,0.00,902.00,VWS V14.00,2013-03-25 19:50:00,
2013-03-25 14:55:00,54.8,13.4,30.37,ESE,118,7.0,8.0,19,0.00,,---,0.00,895.00,VWS V14.00,2013-03-25 19:55:00,
2013-03-25 15:00:00,53.7,13.6,30.36,ESE,119,4.0,12.0,20,0.00,,---,0.00,889.00,VWS V14.00,2013-03-25 20:00:00,
2013-03-25 15:05:00,54.8,14.5,30.36,ESE,119,4.0,8.0,20,0.00,,---,0.00,882.00,VWS V14.00,2013-03-25 20:05:00,
2013-03-25 15:10:00,54.6,14.4,30.36,ESE,119,4.0,9.0,20,0.00,,---,0.00,879.00,VWS V14.00,2013-03-25 20:10:00,
2013-03-25 15:15:00,55.1,12.4,30.35,ESE,112,7.0,9.0,18,0.00,,---,0.00,867.00,VWS V14.00,2013-03-25 20:15:00,
2013-03-25 15:20:00,56.4,13.4,30.36,NNE,32,6.0,10.0,18,0.00,,---,0.00,858.00,VWS V14.00,2013-03-25 20:20:00,
2013-03-25 15:25:00,55.3,12.5,30.35,NE,38,2.0,7.0,18,0.00,,---,0.00,851.00,VWS V14.00,2013-03-25 20:25:00,
2013-03-25 15:30:00,54.9,12.2,30.34,NE,50,8.0,10.0,18,0.00,,---,0.00,842.00,VWS V14.00,2013-03-25 20:30:00,
2013-03-25 15:35:00,55.1,13.6,30.34,NE,53,4.0,6.0,19,0.00,,---,0.00,831.00,VWS V14.00,2013-03-25 20:35:00,
2013-03-25 15:40:00,55.1,12.4,30.34,NE,53,5.0,10.0,18,0.00,,---,0.00,823.00,VWS V14.00,2013-03-25 20:40:00,
2013-03-25 15:45:00,55.4,12.6,30.34,ENE,58,7.0,8.0,18,0.00,,---,0.00,816.00,VWS V14.00,2013-03-25 20:45:00,
2013-03-25 15:50:00,55.9,13.0,30.34,NE,56,4.0,8.0,18,0.00,,---,0.00,802.00,VWS V14.00,2013-03-25 20:50:00,
2013-03-25 15:55:00,56.3,13.4,30.34,NE,40,4.0,9.0,18,0.00,,---,0.00,791.00,VWS V14.00,2013-03-25 20:55:00,
2013-03-25 16:00:00,56.7,13.7,30.34,NE,36,0.0,9.0,18,0.00,,---,0.00,777.00,VWS V14.00,2013-03-25 21:00:00,
2013-03-25 16:05:00,56.6,12.3,30.33,NE,37,4.0,7.0,17,0.00,,---,0.00,766.00,VWS V14.00,2013-03-25 21:05:00,
2013-03-25 16:10:00,55.9,11.7,30.33,NE,36,2.0,7.0,17,0.00,,---,0.00,758.00,VWS V14.00,2013-03-25 21:10:00,
2013-03-25 16:15:00,55.6,12.8,30.33,NE,36,4.0,6.0,18,0.00,,---,0.00,742.00,VWS V14.00,2013-03-25 21:15:00,
2013-03-25 16:20:00,55.9,14.3,30.34,NE,36,3.0,6.0,19,0.00,,---,0.00,728.00,VWS V14.00,2013-03-25 21:20:00,
2013-03-25 16:25:00,56.3,14.6,30.33,NE,36,1.0,6.0,19,0.00,,---,0.00,717.00,VWS V14.00,2013-03-25 21:25:00,
2013-03-25 16:30:00,55.8,14.2,30.33,NE,36,2.0,6.0,19,0.00,,---,0.00,701.00,VWS V14.00,2013-03-25 21:30:00,
2013-03-25 16:35:00,56.2,14.5,30.33,NE,36,8.0,8.0,19,0.00,,---,0.00,686.00,VWS V14.00,2013-03-25 21:35:00,
2013-03-25 16:40:00,55.9,14.3,30.33,North,9,6.0,11.0,19,0.00,,---,0.00,671.00,VWS V14.00,2013-03-25 21:40:00,
2013-03-25 16:45:00,55.8,14.2,30.33,NW,320,6.0,9.0,19,0.00,,---,0.00,654.00,VWS V14.00,2013-03-25 21:45:00,
2013-03-25 16:50:00,55.9,14.3,30.33,NW,320,7.0,9.0,19,0.00,,---,0.00,640.00,VWS V14.00,2013-03-25 21:50:00,
2013-03-25 16:55:00,56.7,14.9,30.33,NW,320,4.0,7.0,19,0.00,,---,0.00,626.00,VWS V14.00,2013-03-25 21:55:00,
2013-03-25 17:00:00,56.8,13.8,30.33,NW,320,0.0,12.0,18,0.00,,---,0.00,610.00,VWS V14.00,2013-03-25 22:00:00,
2013-03-25 17:05:00,56.2,14.5,30.33,NW,320,5.0,8.0,19,0.00,,---,0.00,598.00,VWS V14.00,2013-03-25 22:05:00,
2013-03-25 17:10:00,55.8,14.2,30.32,NW,320,5.0,9.0,19,0.00,,---,0.00,582.00,VWS V14.00,2013-03-25 22:10:00,
2013-03-25 17:15:00,56.1,14.4,30.32,NW,320,4.0,9.0,19,0.00,,---,0.00,561.00,VWS V14.00,2013-03-25 22:15:00,
2013-03-25 17:20:00,55.8,14.2,30.32,NW,319,6.0,12.0,19,0.00,,---,0.00,548.00,VWS V14.00,2013-03-25 22:20:00,
2013-03-25 17:25:00,56.1,14.4,30.32,NW,322,7.0,8.0,19,0.00,,---,0.00,529.00,VWS V14.00,2013-03-25 22:25:00,
2013-03-25 17:30:00,56.8,15.0,30.32,NW,325,5.0,9.0,19,0.00,,---,0.00,512.00,VWS V14.00,2013-03-25 22:30:00,
2013-03-25 17:35:00,56.0,14.3,30.32,North,350,4.0,8.0,19,0.00,,---,0.00,490.00,VWS V14.00,2013-03-25 22:35:00,
2013-03-25 17:40:00,55.8,14.2,30.32,North,350,0.0,8.0,19,0.00,,---,0.00,473.00,VWS V14.00,2013-03-25 22:40:00,
2013-03-25 17:45:00,55.9,14.3,30.31,North,350,5.0,7.0,19,0.00,,---,0.00,454.00,VWS V14.00,2013-03-25 22:45:00,
2013-03-25 17:50:00,56.1,15.6,30.31,NE,34,4.0,12.0,20,0.00,,---,0.00,434.00,VWS V14.00,2013-03-25 22:50:00,
2013-03-25 17:55:00,55.9,14.3,30.32,NNE,33,3.0,5.0,19,0.00,,---,0.00,418.00,VWS V14.00,2013-03-25 22:55:00,
2013-03-25 18:00:00,56.6,14.8,30.31,NNE,33,0.0,6.0,19,0.00,,---,0.00,397.00,VWS V14.00,2013-03-25 23:00:00,
2013-03-25 18:05:00,56.4,14.7,30.32,NNE,33,3.0,6.0,19,0.00,,---,0.00,380.00,VWS V14.00,2013-03-25 23:05:00,
2013-03-25 18:10:00,56.8,15.0,30.32,NNE,33,3.0,6.0,19,0.00,,---,0.00,360.00,VWS V14.00,2013-03-25 23:10:00,
2013-03-25 18:15:00,56.5,14.8,30.32,NNE,33,0.0,6.0,19,0.00,,---,0.00,339.00,VWS V14.00,2013-03-25 23:15:00,
2013-03-25 18:20:00,55.8,14.2,30.31,NNE,33,1.0,6.0,19,0.00,,---,0.00,323.00,VWS V14.00,2013-03-25 23:20:00,
2013-03-25 18:25:00,55.9,14.3,30.32,NE,38,0.0,7.0,19,0.00,,---,0.00,306.00,VWS V14.00,2013-03-25 23:25:00,
2013-03-25 18:30:00,56.4,13.4,30.32,NE,37,0.0,7.0,18,0.00,,---,0.00,285.00,VWS V14.00,2013-03-25 23:30:00,
2013-03-25 18:35:00,56.0,14.3,30.32,NE,37,3.0,6.0,19,0.00,,---,0.00,264.00,VWS V14.00,2013-03-25 23:35:00,
2013-03-25 18:40:00,55.7,14.1,30.32,NE,36,3.0,7.0,19,0.00,,---,0.00,243.00,VWS V14.00,2013-03-25 23:40:00,
2013-03-25 18:45:00,55.7,14.1,30.32,NE,36,3.0,6.0,19,0.00,,---,0.00,218.00,VWS V14.00,2013-03-25 23:45:00,
2013-03-25 18:50:00,55.3,13.8,30.32,NE,36,3.0,6.0,19,0.00,,---,0.00,192.00,VWS V14.00,2013-03-25 23:50:00,
2013-03-25 18:55:00,55.5,15.1,30.33,NE,36,4.0,5.0,20,0.00,,---,0.00,171.00,VWS V14.00,2013-03-25 23:55:00,
2013-03-25 19:00:00,55.1,14.8,30.32,NE,36,0.0,5.0,20,0.00,,---,0.00,148.00,VWS V14.00,2013-03-26 00:00:00,
2013-03-25 19:05:00,55.0,13.5,30.33,NE,36,0.0,3.0,19,0.00,,---,0.00,123.00,VWS V14.00,2013-03-26 00:05:00,
2013-03-25 19:10:00,55.0,14.7,30.33,NE,36,3.0,3.0,20,0.00,,---,0.00,102.00,VWS V14.00,2013-03-26 00:10:00,
2013-03-25 19:15:00,54.7,14.4,30.33,NE,36,2.0,6.0,20,0.00,,---,0.00,81.00,VWS V14.00,2013-03-26 00:15:00,
2013-03-25 19:20:00,54.4,14.2,30.33,NE,36,4.0,6.0,20,0.00,,---,0.00,65.00,VWS V14.00,2013-03-26 00:20:00,
2013-03-25 19:25:00,54.1,15.1,30.33,NE,36,1.0,3.0,21,0.00,,---,0.00,47.00,VWS V14.00,2013-03-26 00:25:00,
2013-03-25 19:30:00,53.9,14.9,30.33,NE,36,0.0,3.0,21,0.00,,---,0.00,35.00,VWS V14.00,2013-03-26 00:30:00,
2013-03-25 19:34:00,53.6,14.6,30.34,NE,36,0.0,4.0,21,0.00,,---,0.00,25.00,VWS V14.00,2013-03-26 00:34:00,
2013-03-25 19:39:00,53.2,15.4,30.34,NE,36,0.0,4.0,22,0.00,,---,0.00,16.00,VWS V14.00,2013-03-26 00:39:00,
2013-03-25 19:44:00,52.7,16.0,30.34,NE,36,0.0,0.0,23,0.00,,---,0.00,12.00,VWS V14.00,2013-03-26 00:44:00,
2013-03-25 19:49:00,52.2,16.5,30.35,NE,36,0.0,0.0,24,0.00,,---,0.00,7.00,VWS V14.00,2013-03-26 00:49:00,
2013-03-25 19:54:00,51.5,16.9,30.35,NE,36,0.0,0.0,25,0.00,,---,0.00,0.00,VWS V14.00,2013-03-26 00:54:00,
2013-03-25 19:59:00,51.0,16.4,30.35,NE,36,0.0,0.0,25,0.00,,---,0.00,0.00,VWS V14.00,2013-03-26 00:59:00,
2013-03-25 20:04:00,50.4,16.8,30.36,NE,36,0.0,0.0,26,0.00,,---,0.00,0.00,VWS V14.00,2013-03-26 01:04:00,
2013-03-25 20:09:00,50.0,16.5,30.36,NE,36,0.0,0.0,26,0.00,,---,0.00,0.00,VWS V14.00,2013-03-26 01:09:00,
2013-03-25 20:14:00,49.7,16.2,30.36,NE,36,0.0,0.0,26,0.00,,---,0.00,0.00,VWS V14.00,2013-03-26 01:14:00,
2013-03-25 20:19:00,49.2,16.7,30.37,NE,36,0.0,0.0,27,0.00,,---,0.00,0.00,VWS V14.00,2013-03-26 01:19:00,
2013-03-25 20:24:00,48.7,17.1,30.37,NE,36,0.0,0.0,28,0.00,,---,0.00,0.00,VWS V14.00,2013-03-26 01:24:00,
2013-03-25 20:29:00,48.4,17.6,30.37,NE,36,0.0,1.0,29,0.00,,---,0.00,0.00,VWS V14.00,2013-03-26 01:29:00,
2013-03-25 20:34:00,48.1,17.4,30.37,NE,36,0.0,0.0,29,0.00,,---,0.00,0.00,VWS V14.00,2013-03-26 01:34:00,
2013-03-25 20:39:00,48.2,17.5,30.38,NE,36,3.0,5.0,29,0.00,,---,0.00,0.00,VWS V14.00,2013-03-26 01:39:00,
2013-03-25 20:44:00,48.3,16.7,30.38,NE,36,2.0,4.0,28,0.00,,---,0.00,0.00,VWS V14.00,2013-03-26 01:44:00,
2013-03-25 20:49:00,48.6,17.0,30.38,NE,36,4.0,6.0,28,0.00,,---,0.00,0.00,VWS V14.00,2013-03-26 01:49:00,
2013-03-25 20:54:00,48.7,17.1,30.39,NE,36,2.0,4.0,28,0.00,,---,0.00,0.00,VWS V14.00,2013-03-26 01:54:00,
2013-03-25 20:59:00,48.7,17.1,30.39,NE,36,3.0,4.0,28,0.00,,---,0.00,0.00,VWS V14.00,2013-03-26 01:59:00,
2013-03-25 21:04:00,48.6,17.8,30.39,NE,36,4.0,5.0,29,0.00,,---,0.00,0.00,VWS V14.00,2013-03-26 02:04:00,
2013-03-25 21:09:00,48.6,17.8,30.40,NE,36,4.0,6.0,29,0.00,,---,0.00,0.00,VWS V14.00,2013-03-26 02:09:00,
2013-03-25 21:14:00,48.5,17.7,30.39,NE,36,4.0,4.0,29,0.00,,---,0.00,0.00,VWS V14.00,2013-03-26 02:14:00,
2013-03-25 21:19:00,48.5,17.7,30.39,NE,36,2.0,6.0,29,0.00,,---,0.00,0.00,VWS V14.00,2013-03-26 02:19:00,
2013-03-25 21:24:00,48.3,17.5,30.39,NE,36,3.0,6.0,29,0.00,,---,0.00,0.00,VWS V14.00,2013-03-26 02:24:00,
2013-03-25 21:29:00,48.3,18.3,30.40,NE,36,6.0,6.0,30,0.00,,---,0.00,0.00,VWS V14.00,2013-03-26 02:29:00,
2013-03-25 21:34:00,48.1,18.1,30.40,NE,36,2.0,6.0,30,0.00,,---,0.00,0.00,VWS V14.00,2013-03-26 02:34:00,
2013-03-25 21:39:00,48.0,18.8,30.40,NE,36,2.0,6.0,31,0.00,,---,0.00,0.00,VWS V14.00,2013-03-26 02:39:00,
2013-03-25 21:44:00,47.8,18.6,30.40,NE,36,2.0,5.0,31,0.00,,---,0.00,0.00,VWS V14.00,2013-03-26 02:44:00,
2013-03-25 21:49:00,47.6,19.2,30.41,NE,36,4.0,7.0,32,0.00,,---,0.00,0.00,VWS V14.00,2013-03-26 02:49:00,
2013-03-25 21:54:00,47.3,19.0,30.41,NE,37,4.0,7.0,32,0.00,,---,0.00,0.00,VWS V14.00,2013-03-26 02:54:00,
2013-03-25 21:59:00,47.1,19.5,30.41,NE,37,5.0,7.0,33,0.00,,---,0.00,0.00,VWS V14.00,2013-03-26 02:59:00,
2013-03-25 22:04:00,46.8,19.2,30.41,NE,37,2.0,6.0,33,0.00,,---,0.00,0.00,VWS V14.00,2013-03-26 03:04:00,
2013-03-25 22:09:00,46.4,19.6,30.41,NE,37,2.0,7.0,34,0.00,,---,0.00,0.00,VWS V14.00,2013-03-26 03:09:00,
2013-03-25 22:14:00,45.4,19.4,30.42,NE,37,1.0,3.0,35,0.00,,---,0.00,0.00,VWS V14.00,2013-03-26 03:14:00,
2013-03-25 22:19:00,44.7,20.0,30.43,NE,37,2.0,4.0,37,0.00,,---,0.00,0.00,VWS V14.00,2013-03-26 03:19:00,
2013-03-25 22:24:00,44.5,19.9,30.43,NE,37,5.0,6.0,37,0.00,,---,0.00,0.00,VWS V14.00,2013-03-26 03:24:00,
2013-03-25 22:29:00,44.7,20.0,30.43,NE,37,4.0,6.0,37,0.00,,---,0.00,0.00,VWS V14.00,2013-03-26 03:29:00,
2013-03-25 22:34:00,44.7,20.0,30.43,NE,38,5.0,7.0,37,0.00,,---,0.00,0.00,VWS V14.00,2013-03-26 03:34:00,
2013-03-25 22:39:00,45.0,19.7,30.44,NE,38,7.0,7.0,36,0.00,,---,0.00,0.00,VWS V14.00,2013-03-26 03:39:00,
2013-03-25 22:44:00,45.5,20.1,30.44,NE,38,2.0,7.0,36,0.00,,---,0.00,0.00,VWS V14.00,2013-03-26 03:44:00,
2013-03-25 22:49:00,45.7,20.3,30.44,NE,39,5.0,7.0,36,0.00,,---,0.00,0.00,VWS V14.00,2013-03-26 03:49:00,
2013-03-25 22:54:00,45.5,20.1,30.45,NE,39,2.0,7.0,36,0.00,,---,0.00,0.00,VWS V14.00,2013-03-26 03:54:00,
2013-03-25 22:59:00,44.9,20.2,30.45,NE,39,4.0,7.0,37,0.00,,---,0.00,0.00,VWS V14.00,2013-03-26 03:59:00,
2013-03-25 23:00:00,44.9,20.2,30.45,NE,39,2.0,7.0,37,0.00,,---,0.00,0.00,VWS V14.00,2013-03-26 04:00:00,
2013-03-25 23:05:00,44.7,20.0,30.45,NE,39,3.0,6.0,37,0.00,,---,0.00,0.00,VWS V14.00,2013-03-26 04:05:00,
2013-03-25 23:10:00,44.9,20.2,30.46,NE,39,3.0,7.0,37,0.00,,---,0.00,0.00,VWS V14.00,2013-03-26 04:10:00,
2013-03-25 23:15:00,44.7,20.7,30.45,NE,39,4.0,6.0,38,0.00,,---,0.00,0.00,VWS V14.00,2013-03-26 04:15:00,
2013-03-25 23:20:00,44.5,20.5,30.45,NE,40,4.0,8.0,38,0.00,,---,0.00,0.00,VWS V14.00,2013-03-26 04:20:00,
2013-03-25 23:25:00,44.6,20.6,30.46,NE,40,6.0,7.0,38,0.00,,---,0.00,0.00,VWS V14.00,2013-03-26 04:25:00,
2013-03-25 23:30:00,44.4,20.4,30.46,NE,40,3.0,7.0,38,0.00,,---,0.00,0.00,VWS V14.00,2013-03-26 04:30:00,
2013-03-25 23:35:00,44.1,20.7,30.46,NE,41,4.0,8.0,39,0.00,,---,0.00,0.00,VWS V14.00,2013-03-26 04:35:00,
2013-03-25 23:40:00,44.1,20.7,30.46,NE,42,4.0,9.0,39,0.00,,---,0.00,0.00,VWS V14.00,2013-03-26 04:40:00,
2013-03-25 23:45:00,43.8,21.1,30.47,NE,43,5.0,6.0,40,0.00,,---,0.00,0.00,VWS V14.00,2013-03-26 04:45:00,
2013-03-25 23:50:00,43.4,20.7,30.47,NE,43,3.0,7.0,40,0.00,,---,0.00,0.00,VWS V14.00,2013-03-26 04:50:00,
2013-03-25 23:55:00,43.2,21.1,30.47,NE,43,4.0,8.0,41,0.00,,---,0.00,0.00,VWS V14.00,2013-03-26 04:55:00,